Location: Holkham
(52.9500°N, 0.8167°E)
Time: 20:29:58
(UTC+00:00)

Meteor 1-19 Rocket - Pass Details

Date: 19 May 2025
Orbit: 805 x 927 km, 81.2° (Epoch: 21 June)

Event Time Altitude Azimuth Distance (km) Brightness Sun altitude
Exits shadow 22:25:41 19° 177° (S) 2,032 5.6 -14.6°
Maximum altitude 22:30:02 69° 98° (E) 994 4.4 -14.9°
Drops below altitude 10° 22:36:01 10° 17° (NNE) 2,629 7.6 -15.2°
Sets 22:38:30 0° 15° (NNE) 3,565 8.4 -15.3°
